Wind_Speed
5 6 6 3 3 4 2 3 4 3 5 4 3 3 5 5 5 6 7 6 5 4 5 4 4 6 6 5 3 0 4 6 6 6 5 5 5 5 5 5 5 5 5 3 5 11 16 15 10 13 17 21 26 20 12 16 20 19 21 24 25 24 24 24 25 25 26 27 27 26 24 23 23 22 22 24 23 22 21 22 23 24 21 18 17 16
6 8 3 1 2 3 2 2 3 3 3 3 3 3 4 5 7 8 5 4 5 4 6 5 2 5 6 5 4 0 4 5 5 7 6 6 6 5 5 6 5 4 3 3 9 14 12 8 8 14 18 21 23 17 12 16 18 19 22 23 21 20 20 20 20 21 24 25 25 25 24 23 23 23 23 23 24 23 21 19 18 21 22 18 16 16
7 5 3 5 1 3 3 3 6 5 1 2 2 1 2 3 5 8 5 4 4 2 5 5 2 5 5 4 3 1 2 3 4 7 7 6 6 5 5 5 4 3 3 4 8 10 7 5 9 14 17 19 18 14 12 16 19 21 22 20 19 20 19 19 18 20 24 24 24 25 26 26 24 23 24 23 23 24 24 21 15 14 16 17 17 15
5 1 5 3 4 4 3 4 7 6 3 1 2 1 4 3 1 4 5 7 6 3 4 4 4 4 3 2 2 3 2 1 1 4 5 6 6 6 5 5 3 2 4 4 5 7 5 4 9 12 15 16 15 14 12 15 20 20 18 17 18 19 19 19 19 22 25 25 25 26 27 29 27 24 23 21 21 21 19 18 16 15 12 11 12 11
4 4 3 4 5 4 4 4 6 6 5 3 2 3 4 5 2 5 5 7 8 4 1 2 5 4 4 4 4 4 2 2 2 3 4 4 5 5 4 4 4 4 4 4 5 7 4 3 7 10 14 14 13 13 12 15 19 17 17 18 18 19 20 20 20 23 24 24 26 26 27 29 28 26 23 20 20 19 17 15 14 13 10 6 3 3
2 3 0 5 5 6 5 2 2 4 3 5 2 4 5 6 6 7 5 5 6 4 2 3 4 5 3 6 7 4 3 4 3 4 6 5 5 5 3 4 5 4 4 5 5 5 3 1 6 10 12 11 12 12 11 16 19 18 19 19 17 18 19 19 21 22 23 23 24 25 25 24 23 22 20 20 21 19 17 15 14 13 12 10 7 6
1 3 3 2 2 6 5 1 0 4 4 3 3 4 4 4 6 7 5 2 2 3 5 1 1 4 3 4 7 5 5 6 5 6 7 6 6 6 5 5 5 4 4 5 5 6 5 2 6 8 8 10 11 10 12 18 20 19 19 16 14 15 17 19 20 21 22 22 22 23 22 21 19 18 18 19 20 19 18 17 16 14 13 12 10 9
1 4 7 5 4 5 4 2 2 4 5 3 6 3 4 6 7 7 3 2 2 3 5 2 2 3 5 4 4 5 5 7 7 8 8 7 7 6 6 6 5 5 5 5 5 6 6 4 6 6 7 10 10 10 15 20 20 18 18 16 15 15 16 18 20 20 21 22 22 21 20 19 19 20 19 19 19 18 20 21 19 16 14 12 10 9
1 2 3 4 4 3 1 3 4 3 3 6 9 7 7 7 8 6 3 3 2 3 5 5 2 1 6 4 1 3 4 8 9 10 9 9 9 8 7 6 5 6 6 5 6 7 7 6 5 4 8 10 10 13 18 20 20 19 18 17 17 17 17 18 20 20 20 22 21 18 18 19 20 21 22 21 20 19 21 22 20 19 18 17 15 13
0 2 3 4 3 1 3 5 3 5 2 7 7 9 8 4 2 1 3 2 2 3 4 5 2 1 5 3 1 1 4 8 9 9 9 9 9 8 7 6 6 6 5 6 8 8 8 7 3 5 8 10 12 16 19 20 20 19 17 16 16 16 15 16 17 18 18 18 18 18 20 21 21 23 24 23 22 21 21 20 20 20 20 21 20 19
2 1 2 3 1 2 4 5 4 7 4 6 7 8 7 4 3 3 2 3 4 2 6 4 3 1 4 4 3 3 5 6 5 4 5 7 8 8 7 6 6 5 5 5 7 8 7 4 4 6 8 10 13 16 18 20 19 17 15 15 15 15 14 14 15 15 14 15 17 20 22 23 23 23 22 23 23 23 22 20 20 21 21 21 20 19
5 4 1 1 1 1 1 3 2 1 2 5 4 3 4 4 4 4 5 4 3 4 5 4 1 1 3 5 4 5 6 6 6 5 6 8 9 9 7 6 6 6 6 4 4 6 4 3 4 5 8 11 13 16 18 18 16 15 15 15 15 15 16 17 16 14 13 16 19 21 23 23 23 21 21 22 23 23 22 21 21 21 21 20 19 18
3 2 3 3 2 0 1 2 4 5 5 5 4 4 4 3 4 4 4 2 1 6 5 3 4 2 5 7 6 6 7 8 7 6 7 9 10 8 6 6 6 5 5 4 4 3 1 1 2 5 8 11 13 15 17 16 15 15 16 16 17 18 19 18 15 13 14 16 18 21 22 22 21 21 21 21 21 21 21 20 20 19 18 18 18 17
3 4 3 3 2 1 3 3 2 3 4 4 3 3 3 2 4 4 4 2 2 6 5 1 4 2 5 6 6 8 8 9 8 7 8 8 8 8 7 6 5 5 4 3 3 2 1 1 4 7 8 10 13 15 16 15 15 15 17 17 19 22 21 15 12 13 14 15 17 19 19 19 20 21 20 19 19 19 19 18 18 18 17 17 18 18
2 4 2 1 2 1 3 3 3 2 2 3 1 4 3 2 1 1 3 2 4 7 7 3 3 4 4 4 6 8 6 7 7 7 6 6 7 6 5 5 5 5 4 3 3 2 2 2 5 6 8 10 12 14 14 13 13 15 17 20 22 22 16 12 13 15 16 15 16 17 17 18 20 19 19 18 17 16 17 19 19 19 19 19 19 20
1 3 4 1 1 2 2 1 3 4 0 3 1 4 1 2 4 2 4 5 2 4 6 2 2 5 4 3 3 1 2 4 6 6 5 6 7 5 4 5 5 4 3 3 3 3 3 2 5 5 7 10 10 11 11 11 13 16 21 23 20 16 13 14 16 17 16 16 16 16 16 17 19 18 17 16 16 18 20 21 21 20 20 20 20 20
1 4 3 1 3 2 1 2 2 2 0 1 2 1 2 3 5 2 4 4 1 1 4 3 4 5 3 4 3 3 3 6 6 6 7 8 7 4 5 5 4 4 4 4 4 4 2 3 5 6 8 8 8 9 10 12 15 19 22 20 15 13 14 16 17 16 16 16 17 16 15 17 18 17 16 17 19 21 21 20 20 19 19 18 18 18
1 3 4 1 0 2 2 1 2 1 2 2 1 2 2 2 4 3 1 4 3 1 4 4 6 7 5 4 3 3 5 8 8 7 8 8 6 5 6 5 4 5 5 5 5 3 2 5 5 6 8 6 7 9 11 14 16 19 19 15 13 14 15 16 17 17 17 17 17 16 15 16 17 16 17 19 19 19 19 18 18 17 17 18 19 19
2 2 6 1 2 3 2 5 3 3 1 3 3 2 3 2 1 1 1 2 2 3 5 4 6 6 3 4 4 4 7 8 8 6 6 7 6 5 6 6 6 5 5 4 3 1 3 5 4 6 6 5 6 10 12 14 16 18 17 14 13 15 16 16 17 17 17 17 16 15 16 16 15 16 17 17 17 18 20 20 19 18 20 21 22 22
2 2 4 3 2 0 3 3 1 2 3 3 2 2 2 2 3 1 1 2 1 3 4 4 6 6 5 6 4 7 8 7 7 5 5 6 6 6 6 5 6 5 5 4 3 2 1 3 4 6 4 3 7 11 12 14 15 17 16 14 14 15 15 15 15 16 16 14 14 14 15 15 15 16 16 15 17 20 20 20 19 20 22 22 22 23
2 2 3 5 3 1 1 1 4 4 1 1 2 1 1 1 1 1 1 2 3 1 2 3 6 8 6 4 6 9 9 7 7 5 5 6 7 7 6 5 5 5 4 4 3 3 1 4 5 4 2 4 9 12 13 13 14 15 14 14 14 14 13 13 14 14 14 13 13 14 14 14 15 15 15 16 18 19 19 19 19 19 20 20 21 22
1 1 2 3 4 2 3 3 4 5 5 5 3 3 3 2 2 1 3 2 2 3 4 2 5 11 7 3 6 8 7 6 6 5 5 7 7 6 5 5 5 5 5 4 4 3 1 4 4 2 2 5 9 12 12 12 12 14 14 13 12 12 11 11 12 12 12 13 13 13 13 15 15 15 16 18 18 17 17 18 18 18 19 20 21 20
1 2 1 4 4 4 4 3 1 1 2 4 3 3 4 4 5 3 3 3 1 1 2 3 2 9 6 4 6 6 6 5 6 7 6 6 6 6 5 5 5 5 5 5 4 3 2 4 3 1 3 5 9 11 11 10 11 13 13 11 11 12 12 12 12 11 12 13 12 12 14 16 17 17 17 17 17 17 17 18 18 18 19 20 21 21
0 2 1 4 5 3 3 4 3 3 3 1 2 2 4 3 4 5 5 3 1 3 2 3 3 8 6 4 5 5 5 4 4 6 6 5 5 5 5 5 5 5 5 5 4 2 3 4 2 1 3 5 8 11 10 10 11 12 11 11 12 12 12 12 12 12 12 12 12 13 15 16 17 16 16 16 17 18 18 18 18 19 20 21 22 23
1 1 1 3 6 5 5 5 5 4 1 2 3 2 4 5 7 4 2 3 0 5 6 4 5 9 6 3 4 4 5 5 5 5 5 5 5 5 5 4 5 5 5 4 3 1 2 3 2 1 2 4 8 10 9 9 11 12 12 12 12 12 13 13 12 12 13 13 13 15 16 16 16 15 16 17 18 18 18 19 20 20 21 22 23 23
1 2 2 2 1 4 4 4 4 2 2 2 1 3 4 6 9 5 2 3 2 5 6 5 7 11 10 5 5 7 8 7 7 5 5 5 5 5 4 4 5 5 5 4 4 2 2 2 2 2 3 5 8 9 8 9 11 13 13 11 11 12 13 13 12 12 13 13 15 15 15 15 15 15 17 18 18 19 20 20 21 21 22 22 23 23
2 1 3 5 6 6 6 7 3 0 3 5 5 5 5 6 7 6 4 3 5 3 4 8 11 14 19 16 12 12 11 9 9 6 5 6 5 5 5 5 5 5 5 4 4 3 3 2 3 3 3 5 8 8 8 9 11 12 11 10 11 12 12 11 12 12 12 13 14 14 14 14 15 16 17 18 18 20 20 21 21 21 22 22 23 23
3 2 4 6 9 9 8 10 8 4 6 10 9 6 7 8 7 7 7 8 4 2 6 11 9 9 18 19 16 17 15 12 11 9 6 6 5 4 5 5 5 5 5 4 3 3 3 3 4 3 4 6 8 8 8 9 12 12 10 10 11 11 11 11 12 12 12 12 12 12 13 14 15 16 17 17 19 20 20 20 20 20 21 22 22 23
5 3 5 4 7 10 9 12 12 7 8 10 9 9 8 9 11 14 16 12 6 4 13 14 8 10 17 20 19 18 14 12 14 10 5 5 4 5 5 5 5 5 5 4 3 3 4 4 4 4 4 6 7 8 8 10 11 10 11 12 11 10 10 12 12 11 10 10 11 12 13 14 15 16 16 17 18 19 19 19 20 20 21 21 22 22
4 3 4 3 7 10 9 11 12 8 6 8 10 11 10 11 15 17 17 13 10 13 19 19 19 20 19 19 20 18 13 11 11 7 4 4 5 5 5 5 5 5 5 5 4 4 4 5 5 5 5 6 7 7 8 9 10 10 12 11 9 8 10 11 10 9 9 10 11 12 13 14 15 15 16 16 17 18 18 19 20 20 21 21 21 22
1 3 2 2 4 9 7 6 6 5 6 10 13 12 10 10 12 13 13 10 8 13 19 17 17 19 18 15 14 14 11 7 7 7 6 6 5 5 6 6 6 6 6 6 5 5 5 5 6 6 6 7 8 8 8 9 10 11 12 10 8 9 11 10 9 9 10 10 11 12 13 14 14 15 15 16 16 17 18 19 20 21 21 21 22 22
2 2 2 4 3 6 4 5 8 8 7 10 15 15 11 9 8 8 8 8 9 12 13 10 9 13 13 8 7 9 9 8 10 10 8 6 5 6 7 7 7 7 6 6 5 5 5 5 6 7 7 8 8 8 8 9 10 11 10 9 9 10 10 9 9 10 10 10 10 12 13 13 14 15 15 15 16 17 18 19 20 21 21 21 21 21
3 2 1 3 1 6 5 6 9 10 8 7 9 9 8 8 7 7 7 9 12 10 7 6 9 12 10 7 8 11 11 10 11 8 7 7 6 6 8 8 7 7 7 6 6 6 6 6 8 9 9 9 9 9 9 9 9 10 9 8 9 10 10 9 9 9 9 9 11 12 12 13 14 15 15 15 16 17 19 20 21 22 22 22 22 21
4 4 2 1 1 5 7 7 7 6 4 5 5 6 7 7 9 10 10 11 12 9 8 9 11 12 13 12 13 14 13 11 9 6 6 6 6 7 8 7 7 7 7 7 7 6 7 8 9 10 10 10 10 9 9 9 9 9 9 9 10 11 10 9 9 9 10 10 11 12 12 13 14 15 16 16 17 19 20 21 22 23 22 22 22 20
5 4 2 1 2 4 5 6 6 3 6 8 5 4 5 5 7 8 11 13 11 11 13 14 15 16 16 15 13 12 12 10 7 6 7 7 7 7 7 7 7 7 7 7 6 6 8 10 11 11 11 11 10 9 9 9 10 10 10 11 12 11 10 10 10 10 11 11 12 13 13 14 15 15 17 18 19 20 21 22 23 22 22 22 22 21
6 4 1 1 2 3 3 2 1 6 10 10 6 1 3 2 3 2 9 13 12 11 12 13 16 18 16 14 13 10 7 7 7 7 9 9 9 8 8 8 8 8 8 8 8 10 12 13 14 13 12 11 10 9 9 10 10 11 11 11 12 11 9 10 11 11 12 12 12 13 14 14 15 16 18 19 20 21 22 23 22 22 23 23 24 22
6 4 1 0 2 2 1 3 3 7 12 10 3 1 2 2 4 3 5 10 8 8 9 10 14 16 13 13 13 7 4 6 9 9 9 10 9 9 9 8 9 9 9 10 12 14 15 15 14 13 11 10 10 10 10 11 11 11 11 12 12 11 10 11 12 12 12 12 13 14 14 14 15 18 19 20 21 23 23 23 23 23 23 23 24 24
4 3 3 2 2 1 1 4 4 5 6 6 4 3 2 3 5 6 0 8 8 8 11 11 13 14 12 12 10 5 5 5 10 10 6 7 8 8 8 8 10 12 12 13 14 14 15 15 14 12 11 10 11 11 11 12 12 11 12 12 11 11 12 13 13 13 13 13 13 14 15 16 17 18 19 20 22 24 24 24 24 24 23 22 24 25
3 2 4 3 2 1 2 2 3 3 7 7 5 4 3 3 5 6 3 7 7 8 9 10 12 13 12 11 7 1 3 6 11 10 4 7 8 8 8 8 10 14 16 17 17 17 17 16 14 12 12 12 12 12 12 13 13 12 13 13 12 12 14 15 14 13 13 14 14 15 16 17 18 18 19 22 23 24 24 24 24 23 22 22 24 25
4 3 2 2 4 2 3 3 3 5 9 8 4 4 3 1 5 5 7 9 6 7 8 9 11 12 11 9 5 3 4 8 12 9 3 8 9 10 11 11 12 15 17 18 19 18 17 16 14 13 14 15 14 13 13 14 13 14 14 13 13 14 15 16 15 13 13 14 15 17 18 17 17 18 20 22 23 23 23 23 23 23 22 23 23 24
1 1 2 3 4 4 5 4 4 5 9 7 3 5 4 1 3 3 7 7 4 6 7 8 10 12 10 7 5 5 9 12 12 7 3 8 8 9 12 15 17 19 19 19 19 18 17 17 17 17 17 16 15 14 15 15 14 15 15 14 14 16 17 16 15 13 14 15 17 18 18 16 17 20 22 22 22 23 22 21 22 22 22 23 23 23
2 1 1 2 3 3 4 3 4 6 6 2 5 3 2 1 3 5 6 5 5 8 8 7 10 11 9 9 9 10 12 13 12 8 5 8 9 8 11 15 16 16 17 19 19 19 19 18 18 18 18 17 15 16 16 16 16 17 15 15 17 18 17 15 14 14 15 16 17 18 17 17 18 20 21 21 21 21 22 21 20 21 21 22 22 22
5 3 2 3 4 3 2 1 2 6 5 6 9 2 1 4 5 9 7 7 9 11 10 8 9 10 9 10 11 13 14 14 13 11 9 9 10 9 11 14 15 15 18 20 21 22 21 19 19 20 20 18 18 18 17 17 18 18 17 18 19 17 15 15 15 15 16 17 18 17 17 18 19 19 19 20 20 20 21 21 20 21 20 20 20 21
4 5 3 3 3 3 3 4 4 3 4 7 5 3 5 8 9 9 9 11 12 12 10 9 10 11 10 11 13 13 13 14 14 12 10 10 10 10 10 14 16 17 19 22 23 24 23 21 20 21 20 20 20 19 19 20 20 19 19 20 19 15 14 15 15 16 17 17 17 18 18 18 18 18 18 18 18 19 20 21 20 21 20 19 19 19
6 6 4 4 4 4 5 8 7 4 2 6 7 8 11 12 12 11 10 11 12 11 10 9 12 14 10 10 12 12 12 14 14 12 12 12 11 10 11 14 17 20 21 22 23 24 25 24 22 21 21 22 21 21 21 22 21 21 21 20 17 15 15 16 16 17 18 18 17 18 18 18 18 18 16 15 14 17 20 21 21 21 20 19 18 18
4 2 1 2 4 5 5 7 8 8 8 7 8 10 12 14 14 12 11 11 12 12 11 10 13 16 12 8 10 12 13 14 14 12 12 11 10 10 11 12 17 21 22 22 23 25 25 24 22 21 22 22 23 23 23 23 23 23 22 19 15 15 16 16 17 17 18 18 18 18 17 18 18 17 15 13 13 16 19 20 20 21 20 19 18 18
3 3 1 3 4 5 6 7 8 9 12 14 12 11 11 11 11 10 10 11 13 13 13 12 14 15 13 10 10 14 16 15 13 13 12 10 10 11 11 10 15 22 26 27 27 26 25 23 22 22 23 24 25 25 25 25 25 24 21 18 16 16 17 17 17 18 18 18 18 18 17 17 17 15 14 14 15 17 19 18 19 20 20 20 19 18
3 3 2 3 3 4 7 12 14 13 14 15 12 9 10 11 11 10 10 11 13 14 14 14 13 13 13 12 13 15 18 16 14 14 12 9 9 10 10 11 15 22 27 29 28 27 26 25 24 24 24 25 26 27 27 27 26 24 20 18 18 17 18 18 18 18 19 18 17 17 17 16 15 14 15 16 17 18 18 19 19 20 20 20 18 18
2 2 3 3 4 5 8 11 12 12 13 14 13 12 13 13 14 15 15 15 15 15 16 16 15 13 13 15 14 15 17 17 15 14 13 10 10 10 10 14 18 22 26 29 29 30 30 29 28 28 28 28 27 27 27 27 26 24 21 20 19 19 19 19 19 19 19 18 17 17 17 15 14 14 15 17 17 17 18 18 18 19 21 21 18 17
2 3 3 2 4 6 8 10 11 11 11 13 15 16 17 16 16 17 17 17 17 17 17 18 19 17 15 15 14 13 16 18 17 14 13 11 11 11 12 15 18 21 24 27 28 29 31 32 31 31 31 30 28 27 27 28 26 24 22 21 20 21 21 20 19 19 19 18 18 17 15 14 14 15 15 15 16 18 19 18 16 16 19 21 18 16
3 4 2 3 6 8 11 12 11 9 10 13 16 18 18 15 15 16 17 17 18 18 17 17 19 20 19 18 15 12 14 18 18 15 13 13 13 14 16 18 19 21 23 25 26 27 30 32 31 31 32 31 29 28 28 28 27 25 24 22 22 22 22 21 20 20 20 19 18 16 14 14 14 15 14 14 15 17 19 21 20 17 15 15 15 15
Wind_Direction
72 61 44 47 334 326 340 110 128 226 238 228 261 280 271 283 281 275 289 305 16 27 272 246 155 170 185 202 230 219 123 135 139 136 138 145 152 164 174 188 194 203 218 245 333 341 339 338 353 4 359 2 4 1 359 0 358 357 354 350 349 348 346 344 344 345 344 342 341 340 336 331 331 328 320 309 298 287 278 267 250 241 241 239 241 252
56 75 55 259 251 293 300 115 68 343 265 226 232 246 278 295 293 290 287 307 23 42 277 270 163 187 193 201 226 124 127 162 165 150 154 163 171 185 186 199 214 216 237 323 343 335 331 337 355 356 358 4 3 359 355 2 4 357 355 354 352 348 347 348 351 352 350 347 345 342 339 336 334 334 330 317 303 294 287 283 267 246 239 240 245 256
41 83 240 262 318 6 2 45 31 7 355 191 189 176 295 294 304 307 302 311 8 43 279 283 252 220 202 198 224 191 156 201 187 162 170 176 180 202 198 202 219 233 286 323 332 322 315 344 354 356 2 5 3 357 354 1 359 354 355 353 347 346 348 349 353 352 348 345 343 341 339 337 335 334 332 325 317 305 289 285 287 263 247 252 258 261
62 217 250 294 11 33 47 36 26 17 25 133 146 104 294 293 1 303 302 316 316 271 242 285 290 242 196 196 259 250 225 236 193 164 174 181 184 200 196 188 194 219 283 294 296 294 295 353 355 360 3 1 358 354 350 352 353 354 354 349 347 349 351 353 353 349 345 342 341 340 338 336 336 336 332 327 328 323 303 290 292 288 285 287 275 260
104 232 249 31 26 66 90 33 32 42 8 310 187 159 269 294 258 231 272 316 320 302 225 5 326 278 201 201 241 262 257 230 217 178 195 211 201 198 182 181 202 220 251 247 255 279 287 349 350 358 0 355 351 349 348 352 356 357 353 351 351 351 353 354 351 348 346 344 343 342 342 341 340 340 342 341 337 331 320 313 310 303 303 319 315 277
99 237 37 40 22 54 81 38 33 80 12 321 252 203 243 283 274 263 297 339 352 335 316 46 357 298 228 207 228 236 229 235 227 207 217 231 224 212 199 215 235 246 248 235 251 280 262 279 343 354 353 347 348 352 354 356 357 352 346 348 352 354 357 354 352 350 348 346 344 344 345 346 344 343 345 347 344 337 331 328 326 317 304 299 300 305
25 356 32 56 47 44 55 45 210 113 74 343 257 224 234 264 272 276 305 20 42 289 276 67 150 273 278 233 226 196 208 239 236 226 226 227 226 216 211 229 238 249 256 245 261 274 247 271 337 341 343 346 353 359 357 355 353 346 341 343 344 347 351 351 351 350 345 344 341 339 339 338 338 337 336 337 338 339 340 340 338 333 321 308 302 305
318 3 19 38 70 54 40 347 266 122 93 278 273 305 299 293 284 273 270 186 212 276 297 333 137 242 286 271 222 170 203 247 243 238 236 229 225 213 215 228 224 232 241 229 250 264 248 274 315 321 347 360 2 359 352 351 351 345 339 335 328 327 332 340 345 343 341 338 334 333 336 336 336 333 329 329 329 329 333 336 338 340 337 329 322 319
7 20 12 48 56 43 20 279 252 117 94 262 277 313 303 287 279 261 208 206 255 3 324 319 61 257 273 286 59 142 214 257 248 236 233 230 224 213 219 226 224 242 239 222 249 269 262 269 292 336 9 10 2 353 349 349 348 345 338 328 323 324 328 336 340 338 334 332 331 335 340 339 336 332 328 325 323 323 326 327 327 330 330 328 324 319
157 194 189 125 80 350 275 268 221 144 210 275 299 314 305 298 277 210 147 169 25 35 271 271 64 21 274 274 72 141 239 255 248 237 231 227 221 217 223 225 233 252 242 233 257 271 268 271 311 12 12 3 355 349 347 346 345 343 334 325 326 330 334 341 345 341 337 336 339 342 341 336 332 329 325 322 320 320 321 320 320 321 321 320 318 315
296 294 188 134 134 232 260 274 212 178 236 318 345 324 322 359 41 68 89 89 59 336 254 214 131 83 301 279 210 194 224 219 209 224 229 221 220 223 226 225 238 249 240 245 263 268 273 299 7 10 0 355 351 347 346 343 340 338 330 325 326 327 328 333 339 341 338 336 338 339 337 333 329 325 322 319 318 318 317 316 316 316 314 313 312 310
333 355 323 271 276 248 322 306 279 209 339 1 356 334 348 353 15 25 3 38 58 290 250 184 120 341 272 271 240 220 228 202 177 191 207 215 222 225 226 229 242 247 247 255 259 264 289 3 14 358 356 352 348 346 345 341 335 331 326 321 319 319 320 318 318 321 320 320 326 330 332 330 325 322 321 318 315 315 315 315 314 312 311 311 310 310
312 300 294 312 311 334 49 346 335 351 18 23 3 20 29 358 5 9 341 7 273 264 233 155 25 345 236 253 246 226 227 214 205 202 202 214 221 223 228 235 247 255 257 256 246 254 295 43 358 354 353 347 346 346 342 336 330 326 323 321 319 316 314 311 309 312 316 319 321 323 325 325 321 318 318 315 313 314 315 316 317 318 320 321 320 320
328 306 318 351 318 310 91 83 351 327 352 5 14 58 69 42 13 335 306 336 298 271 262 89 53 295 271 274 234 218 219 211 212 215 212 215 214 216 222 233 253 260 251 227 217 226 179 40 353 351 345 343 346 344 339 334 332 333 333 331 328 321 315 312 318 325 325 324 324 325 324 322 320 317 314 314 314 315 318 322 327 329 331 330 328 326
15 312 277 165 264 358 78 126 162 172 307 303 174 111 106 116 84 293 273 296 298 290 295 359 101 218 274 288 223 217 220 210 217 225 218 219 218 215 229 251 259 253 238 209 201 209 191 1 349 342 340 345 346 346 345 343 343 346 343 337 332 328 325 329 337 337 335 334 334 335 330 322 319 315 312 313 314 319 326 329 328 327 326 325 323 321
96 265 236 204 302 70 71 203 143 115 308 276 119 87 63 187 151 165 234 234 255 310 300 300 196 217 238 270 260 255 247 232 236 231 215 228 235 229 250 259 248 240 234 214 209 209 199 345 348 347 347 348 350 355 355 351 349 347 341 337 335 337 344 345 344 343 344 345 343 340 333 326 320 316 316 319 322 326 328 325 322 321 320 319 318 318
20 275 250 5 6 64 169 229 116 104 200 355 50 80 235 175 130 122 278 279 66 23 280 285 285 290 315 305 320 6 302 261 250 236 221 231 240 241 253 255 242 234 225 206 202 201 200 356 356 358 352 348 353 359 355 348 346 344 341 338 340 346 349 346 343 343 343 344 341 337 333 327 322 320 323 325 326 326 325 323 321 320 318 318 319 320
129 291 271 187 34 271 232 96 56 63 123 94 104 209 191 93 93 103 309 329 29 243 270 293 289 301 328 313 317 331 280 265 258 245 232 239 251 255 256 253 236 220 205 201 195 176 22 2 360 357 351 347 354 355 350 342 340 342 340 332 333 339 342 343 342 339 337 338 337 333 329 324 320 321 325 326 325 326 327 326 325 324 322 319 319 319
114 318 289 230 136 272 352 53 21 329 50 120 170 168 103 86 1 19 1 332 344 301 289 288 284 287 258 245 277 264 246 252 258 246 233 241 246 246 249 239 228 216 201 199 186 154 359 353 351 350 347 344 356 354 345 338 337 341 336 324 327 334 335 337 338 338 338 338 336 332 326 320 318 323 326 325 324 325 324 323 323 322 318 314 314 314
89 109 284 324 66 329 17 54 203 284 342 20 44 25 49 136 171 188 175 182 211 288 296 308 311 294 231 209 231 252 250 244 243 238 232 233 228 229 232 222 217 210 196 187 175 193 311 348 338 340 346 350 357 351 341 335 337 340 334 323 327 332 332 333 334 337 339 338 335 330 322 318 320 324 325 325 327 325 321 319 319 317 313 310 310 309
45 118 245 310 347 352 324 223 188 184 187 52 49 358 316 41 126 183 206 168 149 179 252 310 309 285 254 208 219 252 261 234 212 214 223 224 225 224 215 207 209 199 185 179 178 199 294 342 327 328 343 348 351 349 340 334 336 339 330 320 325 332 334 335 336 336 335 334 332 325 321 323 327 328 327 326 324 320 316 315 314 314 312 309 308 307
34 143 217 290 318 282 239 222 195 191 178 159 162 188 186 135 101 57 298 279 122 155 182 169 289 279 269 210 217 241 242 210 191 197 215 223 226 224 212 206 202 182 174 182 183 182 327 332 315 303 333 344 349 347 338 333 336 337 327 318 325 334 336 337 339 339 335 330 327 324 327 331 331 329 325 321 318 313 312 312 311 311 310 307 307 307
144 112 145 267 265 245 245 251 206 205 157 146 162 168 153 134 124 140 241 259 248 232 189 126 253 271 259 198 212 224 207 190 184 193 213 225 220 212 212 209 187 172 178 180 174 168 342 325 299 278 336 344 348 344 338 332 335 335 326 320 326 331 335 337 336 336 332 327 326 329 331 330 327 324 319 316 315 314 313 311 310 310 308 307 306 304
52 95 74 280 286 295 296 308 340 22 57 118 240 160 148 152 141 154 177 172 195 243 198 125 239 268 271 220 212 211 197 198 205 209 217 227 223 212 211 203 174 173 185 175 166 167 337 324 286 286 331 340 345 341 335 330 333 333 325 322 326 329 334 334 330 329 328 325 327 329 329 326 322 317 314 314 315 314 312 311 310 310 308 306 305 304
282 151 94 340 329 338 348 344 336 344 45 219 243 188 153 122 106 111 112 89 320 230 177 153 242 263 266 202 196 237 251 262 265 236 217 219 228 225 212 194 179 184 187 176 175 214 314 299 240 251 310 333 342 339 331 327 331 329 321 318 322 326 330 329 325 326 326 324 325 325 324 322 318 314 314 314 313 312 311 311 310 310 309 307 306 304
211 191 128 102 316 303 309 309 298 275 234 234 213 181 167 133 133 145 105 94 243 228 164 166 246 273 283 263 249 269 273 283 284 249 225 232 230 216 204 189 188 191 184 177 186 226 269 246 212 237 295 326 337 336 326 324 328 324 317 314 319 324 325 324 323 324 324 322 322 322 320 318 315 314 315 314 313 313 312 311 311 310 310 308 306 304
87 262 205 186 203 224 247 258 259 340 283 272 254 210 190 174 160 138 112 168 204 193 192 222 240 275 290 290 293 296 293 297 296 277 251 246 230 213 203 196 196 189 180 181 192 226 255 230 212 236 290 316 331 331 318 319 325 320 311 310 318 322 321 320 321 322 322 320 320 320 316 315 314 313 314 314 314 314 312 312 312 311 310 309 307 305
86 300 245 210 228 238 250 267 278 296 274 265 262 233 195 185 169 160 193 212 167 103 265 249 223 251 282 290 296 299 301 304 303 294 267 236 219 213 203 196 195 182 175 186 200 235 259 229 208 230 283 309 326 324 309 315 321 314 305 307 314 314 315 318 319 318 319 319 319 316 313 313 312 312 313 313 314 313 312 311 312 311 310 310 308 306
119 259 245 202 253 257 252 266 271 266 259 256 253 241 214 189 182 197 219 220 172 209 258 266 261 261 276 286 289 290 296 298 296 290 256 211 207 211 212 214 205 191 192 206 217 244 247 219 205 227 271 300 318 314 305 312 315 307 302 305 305 304 308 315 315 315 318 318 315 313 312 312 312 311 313 314 315 313 311 311 312 312 311 310 308 306
126 247 239 198 284 280 255 256 261 251 255 261 250 237 220 203 199 209 228 226 210 234 254 267 278 275 272 275 279 285 288 285 286 282 243 234 238 228 238 248 226 206 208 213 224 243 230 207 207 228 265 294 303 301 300 305 306 302 299 297 294 299 310 313 311 312 316 314 312 312 312 311 311 312 314 315 315 313 312 312 312 311 311 310 307 306
155 260 241 122 318 295 274 271 270 243 248 270 270 254 225 216 217 223 235 233 225 246 256 264 275 276 271 267 268 275 280 281 281 275 263 258 251 247 260 257 233 221 218 217 229 240 222 202 209 231 261 281 283 285 292 297 300 298 291 284 285 301 311 308 305 309 310 307 309 311 312 311 310 312 314 314 315 314 313 313 312 311 311 310 309 308
177 266 338 57 2 284 286 345 327 303 282 273 276 269 240 217 219 222 223 209 202 231 256 270 271 268 270 268 261 267 274 279 279 276 274 267 247 245 258 254 236 223 217 218 228 231 220 206 212 231 251 262 266 274 285 291 295 291 281 275 285 301 305 300 301 307 304 303 309 311 309 309 310 311 312 313 314 314 313 312 311 312 311 310 310 308
158 164 5 58 330 270 295 340 325 319 318 284 261 247 219 207 220 236 240 217 205 211 240 255 252 263 282 296 291 287 284 280 276 269 265 264 251 239 242 242 234 221 213 217 226 228 221 214 219 231 242 251 259 270 282 287 285 280 274 274 288 299 300 294 297 301 298 302 308 308 307 307 309 310 311 312 312 311 311 311 310 311 310 310 311 308
148 131 161 161 214 270 299 328 328 327 312 270 231 181 181 207 216 227 247 238 215 203 221 246 263 278 288 287 282 282 282 281 279 258 239 239 241 247 246 233 220 213 209 216 222 219 211 212 223 231 237 248 258 269 280 281 272 269 271 280 293 300 295 287 289 293 294 300 305 304 305 306 307 307 307 309 310 309 308 309 310 311 311 311 311 308
148 140 197 203 193 267 311 350 346 299 239 252 261 194 191 205 196 216 258 260 239 227 237 255 270 271 272 274 273 273 278 284 282 258 243 230 227 241 247 229 213 208 212 219 221 213 209 213 220 225 231 246 259 267 273 269 261 262 269 281 292 295 286 277 282 288 289 296 301 301 301 303 304 305 305 307 307 307 307 308 310 311 312 312 311 308
149 153 187 185 198 279 340 37 280 277 283 295 309 225 171 126 124 241 281 267 242 231 237 247 258 262 268 274 273 276 290 301 291 264 246 234 224 223 229 222 208 203 211 216 215 212 214 218 221 225 233 245 253 259 264 260 254 256 266 279 288 288 274 266 275 285 287 290 295 298 299 300 301 302 304 305 306 305 306 308 309 311 313 313 312 311
140 146 146 213 211 214 260 240 254 309 313 311 315 167 176 176 160 166 277 274 245 215 218 236 254 262 267 271 273 288 344 333 304 280 248 229 218 209 213 211 199 202 213 217 218 219 221 223 225 229 235 240 246 254 256 250 249 254 265 277 283 278 265 262 273 283 283 284 290 295 297 297 298 301 302 303 303 303 305 307 308 310 312 312 312 311
124 156 159 178 240 123 93 291 315 341 306 271 244 243 227 190 155 130 114 291 271 225 212 225 247 257 262 267 275 313 15 338 300 289 254 213 204 197 202 205 198 202 210 210 210 211 213 218 221 224 231 237 246 253 247 241 246 255 263 270 273 268 260 261 272 279 277 279 287 292 293 295 297 299 299 299 300 302 304 306 307 310 312 311 309 309
67 44 108 135 277 14 106 257 259 258 264 252 232 238 233 184 126 93 15 294 267 230 211 213 233 247 257 262 261 316 11 307 292 289 234 189 197 192 194 202 199 202 207 206 206 207 209 215 219 224 232 236 239 242 238 237 246 253 256 261 266 262 257 259 268 274 274 277 283 286 290 296 297 295 295 297 299 301 303 304 306 309 311 310 308 308
42 13 76 177 248 215 163 234 243 242 260 258 209 186 217 187 104 63 333 298 255 221 208 204 227 243 248 250 235 187 218 258 281 291 195 178 198 194 191 198 196 196 200 202 207 213 213 214 217 219 224 227 232 236 237 239 243 246 250 258 262 257 254 258 266 272 273 274 278 284 292 296 294 292 295 297 299 301 302 304 306 308 310 310 310 310
80 257 186 197 229 197 188 239 270 257 259 263 201 159 172 151 58 14 302 284 251 235 219 206 231 247 243 231 215 209 224 238 261 280 167 167 196 196 193 200 199 198 200 201 204 209 208 211 218 222 227 232 235 235 233 233 236 240 247 256 257 254 255 259 264 269 269 271 277 285 291 292 290 293 297 298 299 301 301 303 305 307 309 310 311 312
183 205 189 180 208 204 193 217 282 280 263 155 109 133 165 129 329 296 274 269 279 277 261 233 238 248 242 226 223 235 245 248 253 257 208 188 202 198 190 195 196 197 201 202 203 204 205 210 217 222 228 231 230 228 228 230 234 240 246 250 252 255 258 258 260 264 265 269 278 285 289 289 290 296 299 299 300 300 300 303 307 307 308 310 310 311
176 181 216 199 187 184 189 210 286 287 263 129 111 91 195 190 258 284 292 295 289 287 286 268 253 250 243 236 238 242 251 258 256 247 231 214 210 203 193 191 193 195 196 197 201 205 207 209 213 218 222 224 225 227 229 229 233 238 241 247 253 258 257 254 256 260 263 269 278 284 287 290 293 298 300 300 301 300 299 303 307 308 309 310 309 310
186 181 217 234 199 152 169 220 225 228 197 164 156 255 238 221 252 285 298 296 291 288 289 282 271 262 244 240 252 254 253 259 257 247 240 230 216 206 199 194 196 198 197 197 202 205 206 208 212 216 220 222 225 228 229 228 231 235 240 249 256 255 248 249 252 256 262 269 276 282 287 292 295 298 298 299 300 299 299 303 306 306 307 308 308 307
215 196 201 232 227 197 205 238 258 280 222 197 218 256 263 265 276 283 280 282 285 285 285 283 281 278 261 241 253 261 258 258 258 248 240 235 224 212 206 202 201 201 201 202 204 205 206 210 214 215 217 220 223 226 229 229 228 232 242 252 255 246 242 246 249 254 262 267 272 281 288 293 296 295 295 297 300 300 300 302 303 303 303 305 305 302
248 210 189 244 275 285 270 268 287 298 291 270 251 251 260 269 279 285 285 282 280 281 282 281 280 283 279 256 250 260 261 259 259 254 242 235 229 218 208 204 203 202 202 202 203 205 207 210 213 214 214 218 222 224 228 229 228 234 246 253 248 241 240 243 246 253 260 264 270 280 287 292 295 294 294 297 301 300 299 299 299 299 299 299 298 296
340 27 349 273 303 320 302 297 304 298 291 293 288 277 273 271 272 278 283 281 283 286 287 285 283 286 285 268 253 262 267 263 259 257 248 235 229 222 210 205 203 201 202 204 204 204 204 204 207 211 213 217 221 222 225 227 230 237 245 247 240 237 237 240 244 250 255 260 269 278 284 290 294 295 296 297 298 298 298 299 298 295 293 293 292 292
339 6 314 270 282 279 265 276 290 291 286 288 290 290 294 294 291 293 289 286 290 292 290 288 286 285 284 277 266 267 271 268 262 259 254 239 229 224 214 210 206 202 204 208 207 204 203 203 207 210 213 218 221 222 223 226 231 236 239 237 234 232 233 237 242 247 252 259 267 273 280 287 291 291 292 293 294 296 298 300 300 295 291 290 290 289
324 299 258 255 280 274 266 280 299 303 295 296 306 312 311 311 313 311 307 303 302 302 301 300 295 286 280 278 275 274 275 272 266 261 258 247 234 227 219 213 209 206 205 207 207 205 205 207 210 211 215 221 222 221 222 226 231 234 233 230 229 228 230 235 240 244 250 257 262 268 276 283 284 284 287 291 295 298 299 298 298 295 293 293 292 287
320 269 265 309 312 296 294 306 318 319 306 305 313 314 313 316 318 315 312 312 312 312 312 310 306 301 291 279 272 270 273 276 274 266 261 253 239 232 226 214 208 208 208 206 206 207 208 211 214 215 218 223 224 221 223 226 229 230 229 227 226 226 228 231 235 241 247 252 256 262 270 276 278 281 286 291 296 300 302 302 297 290 288 289 288 282
220 224 237 298 292 286 293 304 313 312 300 300 309 312 313 316 318 315 315 315 314 314 315 313 311 310 307 298 287 271 262 272 278 274 266 261 250 239 230 218 209 208 208 205 202 205 210 214 216 217 219 222 222 221 223 225 227 227 227 226 224 224 226 228 231 235 241 245 250 256 261 267 275 281 285 289 294 299 304 307 306 300 291 286 285 284
Height
845 852 860 862 866 866 863 864 864 864 865 864 866 867 867 868 866 860 856 852 851 854 853 851 855 866 873 872 870 870 870 871 872 874 876 877 877 878 878 878 878 878 878 879 878 877 876 877 877 877 875 873 871 871 870 868 868 867 866 864 863 861 859 858 856 855 854 853 851 849 847 845 843 841 840 838 837 837 836 835 835 835 835 834 833 833
848 856 866 866 865 865 863 865 867 866 864 864 866 867 866 866 863 858 856 854 853 857 855 851 856 865 872 872 870 870 869 870 872 873 875 876 876 876 876 876 876 877 877 877 875 875 876 876 876 875 873 870 869 869 868 867 867 866 864 863 861 860 858 857 855 853 854 854 851 849 847 845 842 840 838 837 836 835 834 834 833 833 833 832 832 831
857 862 865 864 864 864 864 865 867 866 863 862 865 867 866 866 864 857 853 854 855 857 855 850 852 860 871 873 871 871 870 871 871 871 873 873 875 875 874 875 875 877 876 874 873 874 875 875 873 872 870 869 868 868 866 865 864 864 862 861 860 858 857 855 853 852 852 852 851 849 846 844 841 839 837 836 834 833 832 832 832 832 832 831 830 829
859 864 863 862 863 863 865 866 866 864 861 863 864 863 864 867 870 863 856 855 856 857 855 851 850 859 873 875 872 873 870 871 871 871 872 872 872 873 873 874 875 875 874 872 872 873 873 872 872 870 868 867 867 866 864 863 863 862 861 859 858 857 855 854 852 851 851 850 849 847 845 842 839 837 836 834 833 832 831 830 830 830 830 829 828 827
859 863 862 862 863 863 865 867 869 865 861 864 863 861 863 865 868 868 864 860 856 855 853 853 850 854 871 875 871 874 873 872 872 871 872 871 871 872 872 874 873 872 871 871 872 872 871 871 869 868 866 865 865 864 863 862 861 860 859 858 856 855 854 853 852 850 849 848 847 845 843 840 837 836 835 833 832 831 830 829 828 828 828 827 827 827
862 862 861 862 863 864 865 866 870 867 863 863 860 859 862 863 864 866 869 866 858 853 850 854 852 847 864 874 870 874 874 872 873 871 872 871 871 871 872 872 871 870 869 870 870 869 869 868 867 865 864 864 863 862 861 860 860 858 857 857 855 854 853 852 851 849 848 847 846 845 843 841 839 837 836 835 833 832 830 829 828 827 826 826 826 826
862 862 862 863 864 865 865 867 869 869 868 863 856 858 862 864 866 865 868 866 859 854 850 854 855 850 855 861 865 874 876 873 873 872 871 871 870 870 871 870 868 868 868 868 868 867 866 865 863 863 862 862 861 861 860 858 858 857 855 855 853 852 851 850 849 848 848 847 846 845 844 842 841 839 837 836 835 833 831 829 827 826 825 825 825 825
862 862 862 864 864 865 865 865 867 869 869 859 851 857 862 864 866 865 866 866 862 859 853 851 855 855 848 850 865 875 873 874 873 871 871 869 869 869 868 867 866 867 866 866 865 864 863 862 861 862 861 861 860 859 858 857 856 855 853 853 852 850 849 848 847 847 847 846 845 844 843 842 841 839 838 836 834 833 831 829 827 825 824 823 823 823
866 863 864 865 865 865 864 864 866 868 867 858 854 859 862 862 863 864 865 865 865 861 853 849 854 856 847 849 871 878 872 872 868 867 868 865 866 866 865 865 864 864 863 862 862 861 860 860 860 861 859 859 858 857 856 855 854 853 852 851 850 849 848 846 845 845 845 845 844 843 842 841 840 839 838 836 834 832 830 828 826 825 823 822 821 821
868 866 868 868 867 866 864 864 866 866 864 860 858 858 858 861 862 864 864 861 864 861 852 850 855 858 848 845 865 874 867 863 859 861 864 862 863 862 861 862 862 862 861 860 860 859 859 859 859 859 857 857 856 855 854 853 852 851 850 850 848 847 846 845 844 843 843 843 843 842 841 840 839 838 836 835 833 832 829 827 825 824 822 821 820 820
870 869 871 869 866 866 865 865 865 865 864 861 862 860 855 856 857 861 863 860 860 855 848 851 856 860 853 840 847 858 852 849 851 855 859 859 860 859 858 860 860 859 859 858 858 858 858 858 857 856 855 855 854 853 853 851 850 849 849 848 846 845 844 842 842 841 841 841 840 840 840 839 838 836 835 834 832 830 828 827 825 823 822 821 820 819
871 867 869 869 867 868 867 866 864 866 867 864 865 864 854 852 855 856 859 859 854 842 842 855 858 858 854 837 833 844 849 849 848 849 852 854 854 856 856 857 857 857 856 856 857 857 857 856 856 855 853 853 852 851 850 849 848 847 847 846 844 843 841 840 839 838 838 838 838 838 838 837 837 835 834 833 831 829 827 825 824 823 821 820 819 818
869 868 870 869 868 870 867 864 863 864 866 864 865 865 857 856 858 855 858 862 854 841 842 855 857 855 850 833 829 838 844 849 848 845 847 848 849 852 854 854 854 854 854 855 856 855 855 855 853 852 851 850 849 848 848 847 846 846 845 844 842 841 839 838 837 836 835 835 835 835 835 835 835 834 833 831 830 828 826 825 823 822 820 819 818 817
862 867 872 869 867 869 866 863 863 864 865 865 867 867 863 865 864 859 864 868 862 849 844 853 860 857 845 830 829 833 836 843 846 845 845 845 847 849 850 852 852 853 854 854 854 854 853 853 851 849 849 848 847 847 846 845 844 844 843 843 841 839 838 837 835 835 834 833 833 833 833 833 833 832 831 830 828 827 825 824 822 821 820 818 817 816
859 857 865 868 866 867 867 868 869 870 871 869 870 870 869 873 870 864 866 868 868 864 856 855 855 847 835 828 830 833 836 843 845 845 847 847 848 849 849 851 851 851 852 851 852 852 851 850 849 848 847 846 846 845 844 844 843 843 842 841 840 838 837 836 835 834 833 832 831 831 831 831 831 830 829 828 827 825 824 822 821 820 818 817 816 815
863 855 865 871 868 867 868 871 874 874 871 870 872 871 872 878 878 875 873 871 878 882 871 857 845 835 831 832 838 841 840 844 845 846 849 847 847 849 849 850 849 848 850 850 851 850 849 848 846 846 846 845 845 844 843 843 842 841 840 839 838 836 835 835 834 833 831 830 830 829 829 829 829 828 827 826 825 824 822 821 820 818 817 816 815 813
861 856 867 871 869 871 872 872 874 872 868 869 872 873 878 883 883 882 881 881 889 888 870 853 841 837 834 830 839 848 844 842 845 846 847 845 846 849 847 845 846 847 848 849 849 848 846 845 845 844 844 843 843 842 842 841 840 839 838 837 836 835 834 833 832 831 830 829 828 828 828 828 827 827 825 824 823 822 821 820 818 817 815 814 813 812
869 860 866 871 867 872 876 872 873 875 872 870 870 875 882 883 884 887 886 885 890 885 868 856 849 847 843 833 835 846 844 838 839 841 844 845 845 846 843 842 843 845 846 847 846 845 844 843 842 842 842 842 841 841 840 839 838 838 837 836 835 833 832 832 831 830 829 828 827 826 826 826 826 825 824 823 821 820 819 818 817 815 814 812 811 810
877 863 862 872 869 871 877 872 869 874 876 873 871 875 878 875 878 885 884 881 886 886 874 863 858 852 844 834 827 829 831 829 830 835 838 839 841 841 840 840 842 843 844 844 842 842 841 840 840 840 840 840 839 839 838 837 837 836 835 834 833 832 831 830 829 828 827 826 826 825 825 824 824 823 822 821 820 818 817 816 815 814 812 811 810 808
881 868 861 869 874 873 874 871 868 871 876 875 875 878 877 876 880 884 887 887 886 886 879 868 858 843 832 827 821 818 821 822 825 831 833 834 837 838 838 838 840 840 840 840 839 839 839 839 838 838 838 838 837 837 836 835 835 834 833 833 831 830 829 828 827 827 826 825 824 824 823 823 822 821 821 820 818 817 816 815 814 812 811 809 808 807
881 875 865 868 875 873 868 869 869 869 873 875 875 879 879 880 884 885 890 893 887 885 888 884 867 837 818 819 817 813 815 818 823 827 829 833 835 834 835 835 835 836 837 837 837 837 837 836 836 836 836 835 835 835 834 833 833 832 832 831 830 829 827 826 826 825 825 824 823 823 822 821 821 820 819 818 817 816 814 813 812 810 809 808 806 805
879 878 875 872 868 862 863 873 877 873 873 871 870 875 874 876 883 884 886 891 892 889 886 890 880 841 814 814 813 810 813 817 822 826 827 831 832 830 831 832 832 833 834 834 835 835 835 835 834 834 834 833 833 833 832 831 831 830 830 829 828 827 826 825 824 823 823 822 822 821 820 820 819 818 817 817 815 814 813 811 810 809 807 806 804 803
885 885 884 873 864 863 869 877 880 877 874 871 870 874 875 877 880 880 879 884 893 893 887 895 890 844 810 811 811 808 813 817 822 826 826 827 827 827 828 828 830 831 831 832 832 832 833 832 832 832 831 831 831 831 831 830 829 829 828 828 826 825 825 823 823 822 821 821 820 820 819 818 817 817 816 815 813 812 811 809 808 807 805 804 802 801
887 884 880 871 864 869 876 878 879 878 875 871 870 873 876 877 876 878 883 887 892 890 885 897 890 839 805 810 812 809 814 818 821 823 822 822 823 824 825 826 828 829 829 830 830 830 831 830 830 830 829 830 829 829 829 828 827 827 826 826 825 823 823 822 821 820 819 819 819 818 817 816 815 815 814 813 811 810 809 808 806 805 803 802 800 799
881 876 876 871 860 859 863 866 869 872 873 870 869 873 875 878 884 887 893 898 894 883 881 888 873 829 804 809 812 812 814 813 815 818 817 818 820 821 822 823 826 827 827 828 828 828 828 828 828 828 827 828 827 826 826 826 825 825 824 824 823 822 821 820 819 819 818 818 817 816 816 815 814 813 812 811 809 808 807 806 804 803 801 800 798 796
881 876 877 871 862 856 852 851 855 860 865 866 868 873 874 878 882 880 889 899 890 881 884 878 848 812 798 804 808 809 810 809 811 814 815 816 817 817 820 821 823 824 824 825 826 826 826 825 825 826 825 825 825 824 824 824 823 823 822 822 821 820 819 818 818 817 816 816 815 814 814 813 812 811 810 808 807 806 805 803 802 800 799 797 796 794
887 884 881 873 865 859 851 848 855 861 864 862 864 869 873 879 880 876 884 889 879 879 878 858 837 819 805 802 803 801 803 806 808 810 811 813 814 815 817 818 819 821 821 823 824 823 823 823 823 823 823 822 822 822 821 822 821 821 820 819 819 818 817 817 816 815 814 814 813 813 812 811 810 809 808 806 805 804 803 801 800 798 797 795 793 791
887 881 879 879 872 864 861 859 862 867 866 861 861 864 868 878 882 879 876 868 865 871 856 829 830 833 812 799 800 799 800 803 804 805 807 809 811 813 815 816 817 818 819 820 821 820 820 820 820 820 820 820 820 819 819 819 819 819 818 817 817 816 816 815 814 813 813 812 812 811 810 809 808 807 805 804 803 802 800 799 797 796 795 793 791 789
887 879 878 881 874 868 871 867 863 868 867 862 862 863 865 875 880 874 865 860 862 861 838 816 824 830 813 802 801 799 801 803 801 801 804 806 809 811 812 812 812 814 816 817 817 817 817 817 817 817 818 817 817 817 817 817 817 816 816 815 815 814 814 813 813 811 811 810 810 809 808 807 806 805 803 802 801 800 798 797 796 794 792 791 789 787
887 878 879 882 873 865 866 863 862 867 866 859 857 857 858 866 871 867 860 859 861 856 840 829 832 828 815 807 803 799 801 803 801 801 803 804 806 807 807 807 808 810 813 814 814 814 814 814 815 815 815 815 815 815 815 814 815 814 814 813 813 812 812 811 811 810 809 808 808 807 806 805 804 803 801 800 799 798 796 795 794 792 790 788 786 784
887 876 877 882 873 859 855 854 856 860 860 854 849 848 852 856 862 867 865 862 864 858 845 842 845 833 812 804 804 802 800 801 800 799 800 800 802 803 803 803 805 807 809 810 811 811 811 811 812 812 812 812 812 812 812 812 812 812 811 811 810 810 810 809 808 808 807 807 806 805 804 803 802 801 799 798 797 796 794 793 791 789 788 786 784 782
890 881 877 881 872 855 851 854 853 856 859 853 843 838 842 849 850 851 854 856 854 846 840 845 844 823 800 796 801 799 797 799 797 795 796 797 799 800 799 800 802 804 806 807 808 808 808 809 809 809 809 810 810 810 810 809 810 810 809 809 808 808 807 807 806 806 805 805 804 803 803 801 800 799 798 796 795 794 792 791 789 787 785 783 781 779
892 884 877 881 871 853 853 860 860 858 846 829 820 817 820 832 837 834 836 839 837 832 831 829 816 797 789 794 796 794 794 794 793 793 794 794 795 796 796 797 798 800 803 804 804 805 805 805 806 806 806 807 807 807 807 807 807 807 807 806 806 806 805 805 804 804 803 802 802 801 801 800 798 797 796 794 793 792 790 788 787 785 783 781 779 777
892 886 880 883 872 857 859 863 859 850 828 806 806 811 810 816 822 821 818 818 822 824 818 808 799 794 794 794 792 791 789 788 789 791 791 792 793 793 792 794 796 798 799 801 801 801 802 802 803 803 804 804 804 804 804 804 804 804 804 804 803 803 803 802 802 802 801 800 800 799 799 798 797 795 794 793 791 789 788 786 784 782 781 778 776 774
888 886 881 882 878 868 866 862 844 825 811 806 813 819 816 815 817 818 813 810 814 818 813 807 803 797 793 791 789 788 787 787 790 791 790 790 789 788 789 790 793 795 796 797 798 798 798 799 800 800 801 801 801 801 801 801 801 801 801 801 801 801 801 800 800 799 799 797 797 797 797 796 794 793 792 790 789 787 785 784 782 780 778 776 774 772
882 884 880 881 880 870 864 860 841 818 809 810 815 822 824 821 820 821 812 802 804 809 810 808 802 794 791 790 786 786 789 790 790 787 785 785 784 784 785 786 788 791 791 792 793 794 795 796 796 797 797 798 798 798 798 798 798 798 798 798 798 798 798 798 797 797 796 795 795 794 794 793 792 791 790 788 786 785 783 781 780 778 776 774 772 770
879 880 880 878 875 868 866 864 850 833 818 804 804 816 822 817 815 817 809 796 793 798 802 800 794 791 791 788 785 788 792 792 787 779 775 777 779 780 781 782 784 786 787 788 789 790 791 792 792 793 794 794 794 794 794 795 795 795 795 795 796 796 795 795 795 794 793 792 792 792 792 791 790 788 787 786 784 782 780 779 777 776 774 772 770 768
881 880 878 874 869 870 873 868 854 839 815 795 800 818 825 820 818 821 819 805 791 789 794 794 790 789 787 785 786 789 791 791 782 769 766 773 776 777 779 780 781 782 783 785 786 787 788 788 789 790 790 791 791 791 791 792 792 792 792 792 793 793 792 792 791 791 791 790 789 789 788 788 787 786 785 784 782 780 778 777 775 774 772 771 768 766
884 884 882 879 874 874 873 865 858 843 814 796 806 822 827 826 822 823 821 803 784 781 787 789 787 785 782 783 786 788 792 791 775 759 761 770 773 774 776 776 778 779 780 781 782 783 784 785 786 787 787 787 787 787 788 788 788 789 789 789 790 789 789 789 788 788 788 787 786 786 785 785 784 784 783 781 779 778 776 775 773 771 770 769 766 764
887 886 885 884 880 880 877 869 863 847 816 802 812 823 830 830 825 822 811 789 775 779 784 784 783 781 780 782 786 789 790 782 764 753 759 767 768 770 772 772 773 775 776 777 778 779 780 782 782 783 783 783 784 784 785 785 785 785 785 785 786 785 785 785 785 785 784 784 783 783 782 782 781 781 780 778 777 775 774 772 771 769 768 766 764 762
891 890 888 885 881 884 884 875 865 843 814 806 818 827 831 830 824 816 799 780 775 780 782 783 781 777 777 781 783 782 777 767 758 755 760 765 765 766 767 768 769 770 771 772 774 775 777 778 778 779 779 780 780 781 781 782 781 781 781 782 782 781 781 781 781 782 781 780 780 780 779 779 778 778 777 776 774 773 771 770 769 767 765 764 762 760
878 883 884 885 882 880 880 878 866 837 811 813 827 832 832 824 809 797 785 777 777 778 777 780 779 775 775 777 776 771 763 758 757 757 759 762 761 761 763 764 766 767 768 769 770 771 772 773 774 775 775 776 777 777 777 778 777 777 778 778 777 777 777 778 778 778 778 777 777 776 776 775 775 774 773 773 772 770 768 767 766 765 763 762 760 758
854 857 860 870 870 865 870 873 851 817 806 817 824 825 828 815 790 779 779 777 776 775 774 776 774 772 772 770 767 764 759 756 756 755 755 757 756 757 759 760 761 762 763 764 765 766 767 769 769 770 771 772 773 773 773 774 773 773 773 772 772 773 774 774 774 774 774 774 773 773 773 772 771 771 770 769 769 768 766 765 764 762 761 760 758 756
845 839 837 846 847 843 847 843 816 796 807 820 811 803 809 802 786 782 785 780 776 773 772 772 769 766 767 765 761 759 757 753 751 750 751 752 751 753 754 754 756 757 757 759 760 761 763 764 764 765 766 767 768 768 769 769 768 769 768 767 768 769 770 770 771 771 770 770 770 769 769 768 768 767 767 766 766 765 764 762 761 760 759 758 756 754
834 831 827 830 831 828 825 816 802 799 811 818 809 799 797 793 787 787 788 783 778 774 771 770 765 760 761 761 758 756 753 749 747 746 746 745 745 747 748 749 750 751 752 754 755 756 757 758 759 761 761 762 763 764 764 764 764 764 763 763 764 765 766 766 767 767 766 766 766 766 766 765 764 764 763 763 763 762 761 760 759 758 756 755 754 753
831 834 832 829 827 825 818 810 808 807 805 806 807 802 796 792 789 787 786 783 778 772 769 768 763 757 756 757 756 753 748 744 743 742 741 740 740 742 743 744 745 746 748 749 750 751 752 753 755 757 757 757 758 758 758 759 758 758 758 759 760 761 761 762 763 763 763 763 762 763 762 761 761 760 760 760 760 759 759 758 757 756 754 753 752 751
835 839 837 832 830 829 820 809 808 808 803 801 799 795 793 792 789 787 785 781 775 770 768 766 761 757 755 754 753 748 741 739 739 737 735 736 737 737 738 739 740 741 742 743 744 746 748 749 750 751 751 752 751 752 753 753 753 753 753 754 756 756 757 758 758 759 759 759 759 759 759 758 757 757 756 756 756 756 756 755 755 754 752 751 750 749
838 839 837 833 833 832 822 810 807 808 803 799 795 793 792 789 786 785 784 779 774 770 766 763 760 757 753 750 748 744 738 735 735 733 731 732 733 733 734 734 734 736 737 738 740 742 743 744 744 744 745 745 745 746 747 747 747 748 749 750 751 752 753 754 754 754 755 755 755 756 755 755 754 754 754 753 753 753 752 752 751 750 749 748 747 746
841 839 835 833 831 828 820 811 809 806 799 794 793 793 790 787 785 783 779 775 772 768 764 760 756 754 751 747 744 741 736 731 730 729 728 728 728 728 728 728 729 731 732 733 735 736 737 737 737 738 738 738 739 741 741 741 742 743 744 745 746 747 748 749 750 750 751 751 752 752 752 752 751 751 751 750 750 749 749 748 748 747 745 744 744 744
840 835 832 833 832 827 819 812 811 811 804 796 794 793 790 788 786 782 777 774 770 766 763 759 752 748 746 744 742 740 735 729 727 727 725 724 724 723 723 724 726 726 727 729 730 731 732 732 732 732 732 732 734 735 736 736 737 738 739 740 741 742 743 744 745 746 747 747 748 748 748 748 748 748 748 747 747 746 745 744 744 744 743 741 741 741
837 831 830 832 830 825 818 814 815 817 810 801 796 794 791 788 786 782 778 774 769 765 763 759 753 747 742 738 737 738 735 728 724 724 723 720 719 719 719 720 721 721 722 724 725 725 726 726 727 727 727 727 729 730 730 731 732 733 734 735 735 737 738 739 741 742 742 743 744 744 744 745 744 745 745 744 744 744 742 740 739 739 739 739 738 738